Regional Weather Roundup
Issued by NWS

Home | Current Version | Previous Version | Text Only | Print | Product List | Glossary Off
Versions: 1 2 3 4 5 6 7 8 9 10 11 12 13 14 15 16 17 18 19 20 21 22 23 24 25 26 27 28 29 30 31 32 33 34 35 36 37 38 39 40 41 42 43 44 45 46 47 48 49 50

000
ASUS43 KTOP 291908
RWRKS

WEATHER ROUNDUP FOR KANSAS
NATIONAL WEATHER SERVICE GOODLAND KS
200 PM CDT FRI APR 29 2016

NOTE:  "FAIR" INDICATES FEW OR NO CLOUDS BELOW 12,000 FEET WITH NO
SIGNIFICANT WEATHER AND/OR OBSTRUCTIONS TO VISIBILITY.

KSZ001>006-013>018-027>032-041>047-292000-
NORTHWEST KANSAS

CITY           SKY/WX    TMP DP  RH WIND       PRES   REMARKS
GOODLAND       LGT RAIN  38  36  92 NE16G24   29.90F WCI  29
HAYS           CLOUDY    43  36  75 NE16      29.97F
HILL CITY      LGT RAIN  42  40  92 NE14      29.98F FOG
RUSSELL        HVY RAIN  43  42  97 NE10      29.97R FOG
$$

KSZ061>065-074>080-084>089-292000-
SOUTHWEST KANSAS

CITY           SKY/WX    TMP DP  RH WIND       PRES   REMARKS
DODGE CITY     CLOUDY    45  43  93 NE30G41   29.77F
ELKHART          N/A     44  44 100 W2          N/A
GARDEN CITY    CLOUDY    42  40  92 NE25G33   29.79F
GREAT BEND     CLOUDY    43  36  75 N14G20    29.96S
LIBERAL        CLOUDY    48  43  81 E18G35    29.76S
PRATT          CLOUDY    41  41  98 N20G25    29.83F
$$

KSZ066>073-081>083-090>101-292000-
SOUTHEAST KANSAS

CITY           SKY/WX    TMP DP  RH WIND       PRES   REMARKS
CHANUTE        CLOUDY    63  51  65 E16G24    29.82F
COFFEYVILLE    CLOUDY    67  56  67 NE16      29.80F
HUTCHINSON     RAIN      46  44  93 N16G25    29.86F FOG
MEDICINE LODGE   N/A     45  44  97 N17G28    29.81R
NEWTON         CLOUDY    46  41  81 NE17G24   29.79F
PARSONS        CLOUDY    65  56  72 VRB7      29.82F
WICHITA INTL   CLOUDY    51  48  89 NE21      29.75F
WICHITA JABRA  LGT RAIN  50  32  50 NE23G31   29.74F
WICHITA MCCONL RAIN      50  48  93 E20G30    29.72F FOG
WINFIELD       CLOUDY    56  50  80 NE17G30   29.74F THUNDER
$$

KSZ007>012-019>026-033>040-048>060-102>105-292000-
NORTHEAST KANSAS

CITY           SKY/WX    TMP DP  RH WIND       PRES   REMARKS
CONCORDIA      LGT RAIN  46  40  79 NE12      29.99S
EMPORIA        LGT RAIN  53  48  83 NE12      29.89F
LAWRENCE       CLOUDY    56  47  71 E10G21    29.95F
MANHATTAN      LGT RAIN  49  42  77 NE15      29.97F
MARYSVILLE     CLOUDY    46  43  87 E13G18    30.00F
OLATHE IND     PTSUNNY   58  48  69 NE15      29.95F
OLATHE EXE     CLOUDY    58  48  69 NE16      29.95F
SALINA         RAIN      46  44  93 NE17      29.93F FOG
TOPEKA BILLARD CLOUDY    55  46  71 NE13      29.96F
TOPEKA FORBES  CLOUDY    55  46  71 NE9       29.95R
$$




USA.gov is the U.S. government's official web portal to all federal, state and local government web resources and services.